Year,Month,Day,Hour,Minute,Value (Times are PST for barometer in hPa)
2019,05,17,00,00,991.13
2019,05,17,00,01,991.16
2019,05,17,00,02,991.20
2019,05,17,00,03,991.23
2019,05,17,00,04,991.16
2019,05,17,00,05,991.23
2019,05,17,00,06,991.23
2019,05,17,00,07,991.23
2019,05,17,00,08,991.26
2019,05,17,00,09,991.30
2019,05,17,00,10,991.23
2019,05,17,00,11,991.26
2019,05,17,00,12,991.30
2019,05,17,00,13,991.26
2019,05,17,00,14,991.23
2019,05,17,00,15,991.20
2019,05,17,00,16,991.20
2019,05,17,00,17,991.20
2019,05,17,00,18,991.20
2019,05,17,00,19,991.20
2019,05,17,00,20,991.23
2019,05,17,00,21,991.23
2019,05,17,00,22,991.23
2019,05,17,00,23,991.20
2019,05,17,00,24,991.26
2019,05,17,00,25,991.23
2019,05,17,00,26,991.23
2019,05,17,00,27,991.23
2019,05,17,00,28,991.20
2019,05,17,00,29,991.26
2019,05,17,00,30,991.23
2019,05,17,00,31,991.23
2019,05,17,00,32,991.23
2019,05,17,00,33,991.23
2019,05,17,00,34,991.23
2019,05,17,00,35,991.23
2019,05,17,00,36,991.20
2019,05,17,00,37,991.20
2019,05,17,00,38,991.20
2019,05,17,00,39,991.20
2019,05,17,00,40,991.23
2019,05,17,00,41,991.16
2019,05,17,00,42,991.20
2019,05,17,00,43,991.13
2019,05,17,00,44,991.20
2019,05,17,00,45,991.23
2019,05,17,00,46,991.26
2019,05,17,00,47,991.23
2019,05,17,00,48,991.23
2019,05,17,00,49,991.23
2019,05,17,00,50,991.26
2019,05,17,00,51,991.23
2019,05,17,00,52,991.26
2019,05,17,00,53,991.23
2019,05,17,00,54,991.30
2019,05,17,00,55,991.30
2019,05,17,00,56,991.30
2019,05,17,00,57,991.26
2019,05,17,00,58,991.30
2019,05,17,00,59,991.26
2019,05,17,01,00,991.26
2019,05,17,01,01,991.30
2019,05,17,01,02,991.37
2019,05,17,01,03,991.30
2019,05,17,01,04,991.30
2019,05,17,01,05,991.30
2019,05,17,01,06,991.33
2019,05,17,01,07,991.30
2019,05,17,01,08,991.30
2019,05,17,01,09,991.30
2019,05,17,01,10,991.30
2019,05,17,01,11,991.30
2019,05,17,01,12,991.23
2019,05,17,01,13,991.26
2019,05,17,01,14,991.23
2019,05,17,01,15,991.26
2019,05,17,01,16,991.23
2019,05,17,01,17,991.26
2019,05,17,01,18,991.26
2019,05,17,01,19,991.33
2019,05,17,01,20,991.33
2019,05,17,01,21,991.33
2019,05,17,01,22,991.33
2019,05,17,01,23,991.33
2019,05,17,01,24,991.33
2019,05,17,01,25,991.37
2019,05,17,01,26,991.37
2019,05,17,01,27,991.37
2019,05,17,01,28,991.33
2019,05,17,01,29,991.40
2019,05,17,01,30,991.43
2019,05,17,01,31,991.40
2019,05,17,01,32,991.40
2019,05,17,01,33,991.47
2019,05,17,01,34,991.43
2019,05,17,01,35,991.50
2019,05,17,01,36,991.50
2019,05,17,01,37,991.50
2019,05,17,01,38,991.57
2019,05,17,01,39,991.60
2019,05,17,01,40,991.60
2019,05,17,01,41,991.53
2019,05,17,01,42,991.60
2019,05,17,01,43,991.57
2019,05,17,01,44,991.57
2019,05,17,01,45,991.53
2019,05,17,01,46,991.60
2019,05,17,01,47,991.53
2019,05,17,01,48,991.57
2019,05,17,01,49,991.57
2019,05,17,01,50,991.57
2019,05,17,01,51,991.57
2019,05,17,01,52,991.60
2019,05,17,01,53,991.53
2019,05,17,01,54,991.60
2019,05,17,01,55,991.60
2019,05,17,01,56,991.60
2019,05,17,01,57,991.67
2019,05,17,01,58,991.67
2019,05,17,01,59,991.70
2019,05,17,02,00,991.70
2019,05,17,02,01,991.74
2019,05,17,02,02,991.74
2019,05,17,02,03,991.81
2019,05,17,02,04,991.84
2019,05,17,02,05,991.87
2019,05,17,02,06,991.91
2019,05,17,02,07,991.87
2019,05,17,02,08,991.84
2019,05,17,02,09,991.91
2019,05,17,02,10,991.91
2019,05,17,02,11,991.91
2019,05,17,02,12,992.01
2019,05,17,02,13,991.98
2019,05,17,02,14,991.94
2019,05,17,02,15,992.04
2019,05,17,02,16,992.08
2019,05,17,02,17,992.11
2019,05,17,02,18,992.18
2019,05,17,02,19,992.18
2019,05,17,02,20,992.18
2019,05,17,02,21,992.21
2019,05,17,02,22,992.21
2019,05,17,02,23,992.14
2019,05,17,02,24,992.21
2019,05,17,02,25,992.21
2019,05,17,02,26,992.21
2019,05,17,02,27,992.25
2019,05,17,02,28,992.25
2019,05,17,02,29,992.25
2019,05,17,02,30,992.35
2019,05,17,02,31,992.38
2019,05,17,02,32,992.35
2019,05,17,02,33,992.35
2019,05,17,02,34,992.42
2019,05,17,02,35,992.38
2019,05,17,02,36,992.42
2019,05,17,02,37,992.42
2019,05,17,02,38,992.48
2019,05,17,02,39,992.42
2019,05,17,02,40,992.45
2019,05,17,02,41,992.45
2019,05,17,02,42,992.48
2019,05,17,02,43,992.52
2019,05,17,02,44,992.52
2019,05,17,02,45,992.52
2019,05,17,02,46,992.55
2019,05,17,02,47,992.55
2019,05,17,02,48,992.58
2019,05,17,02,49,992.58
2019,05,17,02,50,992.62
2019,05,17,02,51,992.62
2019,05,17,02,52,992.62
2019,05,17,02,53,992.55
2019,05,17,02,54,992.65
2019,05,17,02,55,992.65
2019,05,17,02,56,992.65
2019,05,17,02,57,992.65
2019,05,17,02,58,992.69
2019,05,17,02,59,992.69
2019,05,17,03,00,992.69
2019,05,17,03,01,992.62
2019,05,17,03,02,992.72
2019,05,17,03,03,992.69
2019,05,17,03,04,992.72
2019,05,17,03,05,992.75
2019,05,17,03,06,992.72
2019,05,17,03,07,992.75
2019,05,17,03,08,992.75
2019,05,17,03,09,992.79
2019,05,17,03,10,992.82
2019,05,17,03,11,992.82
2019,05,17,03,12,992.79
2019,05,17,03,13,992.82
2019,05,17,03,14,992.82
2019,05,17,03,15,992.79
2019,05,17,03,16,992.82
2019,05,17,03,17,992.82
2019,05,17,03,18,992.82
2019,05,17,03,19,992.89
2019,05,17,03,20,992.86
2019,05,17,03,21,992.86
2019,05,17,03,22,992.86
2019,05,17,03,23,992.86
2019,05,17,03,24,992.89
2019,05,17,03,25,992.89
2019,05,17,03,26,992.89
2019,05,17,03,27,992.92
2019,05,17,03,28,993.03
2019,05,17,03,29,993.03
2019,05,17,03,30,993.06
2019,05,17,03,31,993.06
2019,05,17,03,32,993.09
2019,05,17,03,33,993.06
2019,05,17,03,34,993.06
2019,05,17,03,35,993.03
2019,05,17,03,36,993.03
2019,05,17,03,37,992.99
2019,05,17,03,38,993.03
2019,05,17,03,39,993.03
2019,05,17,03,40,993.06
2019,05,17,03,41,993.03
2019,05,17,03,42,992.96
2019,05,17,03,43,993.03
2019,05,17,03,44,993.03
2019,05,17,03,45,993.03
2019,05,17,03,46,993.09
2019,05,17,03,47,993.09
2019,05,17,03,48,992.99
2019,05,17,03,49,993.06
2019,05,17,03,50,993.13
2019,05,17,03,51,993.13
2019,05,17,03,52,993.13
2019,05,17,03,53,993.23
2019,05,17,03,54,993.16
2019,05,17,03,55,993.19
2019,05,17,03,56,993.26
2019,05,17,03,57,993.23
2019,05,17,03,58,993.26
2019,05,17,03,59,993.23
2019,05,17,04,00,993.23
2019,05,17,04,01,993.23
2019,05,17,04,02,993.33
2019,05,17,04,03,993.33
2019,05,17,04,04,993.33
2019,05,17,04,05,993.30
2019,05,17,04,06,993.36
2019,05,17,04,07,993.33
2019,05,17,04,08,993.33
2019,05,17,04,09,993.36
2019,05,17,04,10,993.36
2019,05,17,04,11,993.36
2019,05,17,04,12,993.36
2019,05,17,04,13,993.43
2019,05,17,04,14,993.50
2019,05,17,04,15,993.50
2019,05,17,04,16,993.47
2019,05,17,04,17,993.43
2019,05,17,04,18,993.47
2019,05,17,04,19,993.50
2019,05,17,04,20,993.47
2019,05,17,04,21,993.43
2019,05,17,04,22,993.50
2019,05,17,04,23,993.50
2019,05,17,04,24,993.57
2019,05,17,04,25,993.57
2019,05,17,04,26,993.53
2019,05,17,04,27,993.47
2019,05,17,04,28,993.50
2019,05,17,04,29,993.60
2019,05,17,04,30,993.53
2019,05,17,04,31,993.50
2019,05,17,04,32,993.53
2019,05,17,04,33,993.47
2019,05,17,04,34,993.53
2019,05,17,04,35,993.50
2019,05,17,04,36,993.53
2019,05,17,04,37,993.50
2019,05,17,04,38,993.50
2019,05,17,04,39,993.53
2019,05,17,04,40,993.63
2019,05,17,04,41,993.63
2019,05,17,04,42,993.60
2019,05,17,04,43,993.63
2019,05,17,04,44,993.60
2019,05,17,04,45,993.60
2019,05,17,04,46,993.63
2019,05,17,04,47,993.63
2019,05,17,04,48,993.63
2019,05,17,04,49,993.67
2019,05,17,04,50,993.67
2019,05,17,04,51,993.74
2019,05,17,04,52,993.74
2019,05,17,04,53,993.74
2019,05,17,04,54,993.80
2019,05,17,04,55,993.74
2019,05,17,04,56,993.77
2019,05,17,04,57,993.80
2019,05,17,04,58,993.80
2019,05,17,04,59,993.84
2019,05,17,05,00,993.91
2019,05,17,05,01,993.91
2019,05,17,05,02,993.94
2019,05,17,05,03,994.01
2019,05,17,05,04,994.04
2019,05,17,05,05,994.01
2019,05,17,05,06,994.01
2019,05,17,05,07,994.11
2019,05,17,05,08,994.18
2019,05,17,05,09,994.24
2019,05,17,05,10,994.18
2019,05,17,05,11,994.21
2019,05,17,05,12,994.31
2019,05,17,05,13,994.38
2019,05,17,05,14,994.38
2019,05,17,05,15,994.38
2019,05,17,05,16,994.35
2019,05,17,05,17,994.35
2019,05,17,05,18,994.35
2019,05,17,05,19,994.38
2019,05,17,05,20,994.38
2019,05,17,05,21,994.45
2019,05,17,05,22,994.48
2019,05,17,05,23,994.48
2019,05,17,05,24,994.48
2019,05,17,05,25,994.52
2019,05,17,05,26,994.58
2019,05,17,05,27,994.55
2019,05,17,05,28,994.62
2019,05,17,05,29,994.58
2019,05,17,05,30,994.62
2019,05,17,05,31,994.62
2019,05,17,05,32,994.62
2019,05,17,05,33,994.62
2019,05,17,05,34,994.68
2019,05,17,05,35,994.68
2019,05,17,05,36,994.75
2019,05,17,05,37,994.75
2019,05,17,05,38,994.79
2019,05,17,05,39,994.72
2019,05,17,05,40,994.75
2019,05,17,05,41,994.72
2019,05,17,05,42,994.68
2019,05,17,05,43,994.68
2019,05,17,05,44,994.72
2019,05,17,05,45,994.68
2019,05,17,05,46,994.72
2019,05,17,05,47,994.72
2019,05,17,05,48,994.65
2019,05,17,05,49,994.65
2019,05,17,05,50,994.65
2019,05,17,05,51,994.68
2019,05,17,05,52,994.72
2019,05,17,05,53,994.65
2019,05,17,05,54,994.72
2019,05,17,05,55,994.68
2019,05,17,05,56,994.72
2019,05,17,05,57,994.79
2019,05,17,05,58,994.75
2019,05,17,05,59,994.68
2019,05,17,06,00,994.72
2019,05,17,06,01,994.72
2019,05,17,06,02,994.72
2019,05,17,06,03,994.75
2019,05,17,06,04,994.79
2019,05,17,06,05,994.72
2019,05,17,06,06,994.79
2019,05,17,06,07,994.82
2019,05,17,06,08,994.79
2019,05,17,06,09,994.79
2019,05,17,06,10,994.89
2019,05,17,06,11,994.82
2019,05,17,06,12,994.89
2019,05,17,06,13,994.82
2019,05,17,06,14,994.89
2019,05,17,06,15,994.92
2019,05,17,06,16,994.99
2019,05,17,06,17,994.96
2019,05,17,06,18,994.99
2019,05,17,06,19,994.96
2019,05,17,06,20,995.19
2019,05,17,06,21,995.06
2019,05,17,06,22,995.06
2019,05,17,06,23,995.12
2019,05,17,06,24,995.12
2019,05,17,06,25,995.16
2019,05,17,06,26,995.19
2019,05,17,06,27,995.16
2019,05,17,06,28,995.26
2019,05,17,06,29,995.33
2019,05,17,06,30,995.19
2019,05,17,06,31,995.19
2019,05,17,06,32,995.33
2019,05,17,06,33,995.29
2019,05,17,06,34,995.33
2019,05,17,06,35,995.33
2019,05,17,06,36,995.33
2019,05,17,06,37,995.36
2019,05,17,06,38,995.43
2019,05,17,06,39,995.40
2019,05,17,06,40,995.46
2019,05,17,06,41,995.46
2019,05,17,06,42,995.43
2019,05,17,06,43,995.50
2019,05,17,06,44,995.40
2019,05,17,06,45,995.46
2019,05,17,06,46,995.46
2019,05,17,06,47,995.46
2019,05,17,06,48,995.46
2019,05,17,06,49,995.50
2019,05,17,06,50,995.46
2019,05,17,06,51,995.46
2019,05,17,06,52,995.50
2019,05,17,06,53,995.46
2019,05,17,06,54,995.50
2019,05,17,06,55,995.50
2019,05,17,06,56,995.50
2019,05,17,06,57,995.56
2019,05,17,06,58,995.50
2019,05,17,06,59,995.50
2019,05,17,07,00,995.53
2019,05,17,07,01,995.46
2019,05,17,07,02,995.53
2019,05,17,07,03,995.50
2019,05,17,07,04,995.50
2019,05,17,07,05,995.56
2019,05,17,07,06,995.60
2019,05,17,07,07,995.60
2019,05,17,07,08,995.63
2019,05,17,07,09,995.67
2019,05,17,07,10,995.63
2019,05,17,07,11,995.67
2019,05,17,07,12,995.67
2019,05,17,07,13,995.67
2019,05,17,07,14,995.70
2019,05,17,07,15,995.73
2019,05,17,07,16,995.80
2019,05,17,07,17,995.77
2019,05,17,07,18,995.80
2019,05,17,07,19,995.80
2019,05,17,07,20,995.80
2019,05,17,07,21,995.80
2019,05,17,07,22,995.90
2019,05,17,07,23,995.90
2019,05,17,07,24,995.90
2019,05,17,07,25,995.87
2019,05,17,07,26,995.87
2019,05,17,07,27,995.84
2019,05,17,07,28,995.90
2019,05,17,07,29,995.84
2019,05,17,07,30,995.90
2019,05,17,07,31,995.87
2019,05,17,07,32,995.87
2019,05,17,07,33,995.90
2019,05,17,07,34,995.97
2019,05,17,07,35,995.88
2019,05,17,07,36,995.97
2019,05,17,07,37,995.94
2019,05,17,07,38,995.97
2019,05,17,07,39,995.97
2019,05,17,07,40,996.01
2019,05,17,07,41,996.01
2019,05,17,07,42,995.97
2019,05,17,07,43,996.04
2019,05,17,07,44,996.04
2019,05,17,07,45,996.11
2019,05,17,07,46,996.04
2019,05,17,07,47,995.97
2019,05,17,07,48,996.07
2019,05,17,07,49,996.04
2019,05,17,07,50,996.11
2019,05,17,07,51,996.07
2019,05,17,07,52,996.07
2019,05,17,07,53,996.16
2019,05,17,07,54,996.14
2019,05,17,07,55,996.24
2019,05,17,07,56,996.21
2019,05,17,07,57,996.21
2019,05,17,07,58,996.24
2019,05,17,07,59,996.28
2019,05,17,08,00,996.34
2019,05,17,08,01,996.28
2019,05,17,08,02,996.28
2019,05,17,08,03,996.34
2019,05,17,08,04,996.38
2019,05,17,08,05,996.34
2019,05,17,08,06,996.35
2019,05,17,08,07,996.48
2019,05,17,08,08,996.45
2019,05,17,08,09,996.41
2019,05,17,08,10,996.45
2019,05,17,08,11,996.48
2019,05,17,08,12,996.55
2019,05,17,08,13,996.51
2019,05,17,08,14,996.51
2019,05,17,08,15,996.48
2019,05,17,08,16,996.48
2019,05,17,08,17,996.48
2019,05,17,08,18,996.48
2019,05,17,08,19,996.55
2019,05,17,08,20,996.51
2019,05,17,08,21,996.58
2019,05,17,08,22,996.55
2019,05,17,08,23,996.61
2019,05,17,08,24,996.61
2019,05,17,08,25,996.48
2019,05,17,08,26,996.58
2019,05,17,08,27,996.65
2019,05,17,08,28,996.65
2019,05,17,08,29,996.75
2019,05,17,08,30,996.68
2019,05,17,08,31,996.75
2019,05,17,08,32,996.68
2019,05,17,08,33,996.72
2019,05,17,08,34,996.75
2019,05,17,08,35,996.68
2019,05,17,08,36,996.68
2019,05,17,08,37,996.72
2019,05,17,08,38,996.68
2019,05,17,08,39,996.78
2019,05,17,08,40,996.82
2019,05,17,08,41,996.75
2019,05,17,08,42,996.72
2019,05,17,08,43,996.75
2019,05,17,08,44,996.82
2019,05,17,08,45,996.82
2019,05,17,08,46,996.82
2019,05,17,08,47,996.78
2019,05,17,08,48,996.72
2019,05,17,08,49,996.75
2019,05,17,08,50,996.78
2019,05,17,08,51,996.85
2019,05,17,08,52,996.85
2019,05,17,08,53,996.85
2019,05,17,08,54,996.92
2019,05,17,08,55,996.92
2019,05,17,08,56,996.89
2019,05,17,08,57,996.99
2019,05,17,08,58,996.99
2019,05,17,08,59,996.92
2019,05,17,09,00,996.99
2019,05,17,09,01,996.99
2019,05,17,09,02,997.05
2019,05,17,09,03,997.09
2019,05,17,09,04,997.02
2019,05,17,09,05,997.02
2019,05,17,09,06,997.12
2019,05,17,09,07,997.16
2019,05,17,09,08,997.22
2019,05,17,09,09,997.19
2019,05,17,09,10,997.19
2019,05,17,09,11,997.22
2019,05,17,09,12,997.22
2019,05,17,09,13,997.22
2019,05,17,09,14,997.29
2019,05,17,09,15,997.29
2019,05,17,09,16,997.22
2019,05,17,09,17,997.29
2019,05,17,09,18,997.43
2019,05,17,09,19,997.53
2019,05,17,09,20,997.33
2019,05,17,09,21,997.39
2019,05,17,09,22,997.46
2019,05,17,09,23,997.53
2019,05,17,09,24,997.46
2019,05,17,09,25,997.43
2019,05,17,09,26,997.50
2019,05,17,09,27,997.50
2019,05,17,09,28,997.53
2019,05,17,09,29,997.53
2019,05,17,09,30,997.63
2019,05,17,09,31,997.60
2019,05,17,09,32,997.56
2019,05,17,09,33,997.60
2019,05,17,09,34,997.63
2019,05,17,09,35,997.66
2019,05,17,09,36,997.70
2019,05,17,09,37,997.80
2019,05,17,09,38,997.73
2019,05,17,09,39,997.87
2019,05,17,09,40,997.77
2019,05,17,09,41,997.86
2019,05,17,09,42,997.87
2019,05,17,09,43,997.87
2019,05,17,09,44,997.88
2019,05,17,09,45,998.00
2019,05,17,09,46,997.94
2019,05,17,09,47,997.97
2019,05,17,09,48,997.97
2019,05,17,09,49,998.07
2019,05,17,09,50,998.10
2019,05,17,09,51,998.07
2019,05,17,09,52,998.10
2019,05,17,09,53,998.10
2019,05,17,09,54,998.10
2019,05,17,09,55,998.14
2019,05,17,09,56,998.14
2019,05,17,09,57,998.14
2019,05,17,09,58,998.14
2019,05,17,09,59,998.04
2019,05,17,10,00,998.04
2019,05,17,10,01,998.10
2019,05,17,10,02,998.14
2019,05,17,10,03,998.14
2019,05,17,10,04,998.07
2019,05,17,10,05,998.14
2019,05,17,10,06,998.24
2019,05,17,10,07,998.21
2019,05,17,10,08,998.21
2019,05,17,10,09,998.17
2019,05,17,10,10,998.07
2019,05,17,10,11,998.10
2019,05,17,10,12,998.14
2019,05,17,10,13,998.17
2019,05,17,10,14,998.07
2019,05,17,10,15,998.17
2019,05,17,10,16,998.14
2019,05,17,10,17,998.10
2019,05,17,10,18,998.14
2019,05,17,10,19,998.07
2019,05,17,10,20,998.14
2019,05,17,10,21,998.14
2019,05,17,10,22,998.21
2019,05,17,10,23,998.21
2019,05,17,10,24,998.17
2019,05,17,10,25,998.17
2019,05,17,10,26,998.44
2019,05,17,10,27,998.34
2019,05,17,10,28,998.38
2019,05,17,10,29,998.41
2019,05,17,10,30,998.38
2019,05,17,10,31,998.34
2019,05,17,10,32,998.38
2019,05,17,10,33,998.34
2019,05,17,10,34,998.53
2019,05,17,10,35,998.51
2019,05,17,10,36,998.58
2019,05,17,10,37,998.48
2019,05,17,10,38,998.54
2019,05,17,10,39,998.58
2019,05,17,10,40,998.51
2019,05,17,10,41,998.58
2019,05,17,10,42,998.48
2019,05,17,10,43,998.65
2019,05,17,10,44,998.54
2019,05,17,10,45,998.58
2019,05,17,10,46,998.61
2019,05,17,10,47,998.65
2019,05,17,10,48,998.75
2019,05,17,10,49,998.65
2019,05,17,10,50,998.78
2019,05,17,10,51,998.75
2019,05,17,10,52,998.84
2019,05,17,10,53,998.78
2019,05,17,10,54,998.75
2019,05,17,10,55,998.85
2019,05,17,10,56,998.78
2019,05,17,10,57,998.78
2019,05,17,10,58,998.82
2019,05,17,10,59,998.71
2019,05,17,11,00,998.65
2019,05,17,11,01,998.74
2019,05,17,11,02,998.68
2019,05,17,11,03,998.68
2019,05,17,11,04,998.68
2019,05,17,11,05,998.68
2019,05,17,11,06,998.68
2019,05,17,11,07,998.65
2019,05,17,11,08,998.58
2019,05,17,11,09,998.65
2019,05,17,11,10,998.61
2019,05,17,11,11,998.58
2019,05,17,11,12,998.68
2019,05,17,11,13,998.68
2019,05,17,11,14,998.58
2019,05,17,11,15,998.61
2019,05,17,11,16,998.58
2019,05,17,11,17,998.54
2019,05,17,11,18,998.58
2019,05,17,11,19,998.58
2019,05,17,11,20,998.54
2019,05,17,11,21,998.61
2019,05,17,11,22,998.68
2019,05,17,11,23,998.61
2019,05,17,11,24,998.65
2019,05,17,11,25,998.58
2019,05,17,11,26,998.65
2019,05,17,11,27,998.61
2019,05,17,11,28,998.54
2019,05,17,11,29,998.65
2019,05,17,11,30,998.61
2019,05,17,11,31,998.61
2019,05,17,11,32,998.54
2019,05,17,11,33,998.54
2019,05,17,11,34,998.58
2019,05,17,11,35,998.58
2019,05,17,11,36,998.61
2019,05,17,11,37,998.61
2019,05,17,11,38,998.78
2019,05,17,11,39,998.65
2019,05,17,11,40,998.71
2019,05,17,11,41,998.71
2019,05,17,11,42,998.78
2019,05,17,11,43,998.78
2019,05,17,11,44,998.78
2019,05,17,11,45,998.71
2019,05,17,11,46,998.75
2019,05,17,11,47,998.75
2019,05,17,11,48,998.78
2019,05,17,11,49,998.78
2019,05,17,11,50,998.78
2019,05,17,11,51,998.78
2019,05,17,11,52,998.71
2019,05,17,11,53,998.78
2019,05,17,11,54,998.78
2019,05,17,11,55,998.75
2019,05,17,11,56,998.78
2019,05,17,11,57,998.78
2019,05,17,11,58,998.88
2019,05,17,11,59,998.78
2019,05,17,12,00,998.85
2019,05,17,12,01,998.88
2019,05,17,12,02,998.88
2019,05,17,12,03,998.78
2019,05,17,12,04,998.92
2019,05,17,12,05,998.78
2019,05,17,12,06,998.91
2019,05,17,12,07,998.85
2019,05,17,12,08,998.82
2019,05,17,12,09,998.92
2019,05,17,12,10,998.92
2019,05,17,12,11,998.92
2019,05,17,12,12,998.79
2019,05,17,12,13,998.85
2019,05,17,12,14,998.85
2019,05,17,12,15,998.92
2019,05,17,12,16,998.85
2019,05,17,12,17,998.88
2019,05,17,12,18,999.02
2019,05,17,12,19,998.82
2019,05,17,12,20,998.98
2019,05,17,12,21,998.99
2019,05,17,12,22,998.88
2019,05,17,12,23,999.09
2019,05,17,12,24,999.12
2019,05,17,12,25,999.05
2019,05,17,12,26,999.15
2019,05,17,12,27,999.19
2019,05,17,12,28,999.12
2019,05,17,12,29,999.12
2019,05,17,12,30,999.19
2019,05,17,12,31,999.15
2019,05,17,12,32,999.19
2019,05,17,12,33,999.09
2019,05,17,12,34,999.12
2019,05,17,12,35,999.12
2019,05,17,12,36,999.19
2019,05,17,12,37,999.15
2019,05,17,12,38,999.22
2019,05,17,12,39,999.29
2019,05,17,12,40,999.13
2019,05,17,12,41,999.15
2019,05,17,12,42,999.19
2019,05,17,12,43,999.22
2019,05,17,12,44,999.29
2019,05,17,12,45,999.22
2019,05,17,12,46,999.22
2019,05,17,12,47,999.22
2019,05,17,12,48,999.26
2019,05,17,12,49,999.22
2019,05,17,12,50,999.22
2019,05,17,12,51,999.29
2019,05,17,12,52,999.29
2019,05,17,12,53,999.32
2019,05,17,12,54,999.39
2019,05,17,12,55,999.46
2019,05,17,12,56,999.43
2019,05,17,12,57,999.39
2019,05,17,12,58,999.36
2019,05,17,12,59,999.36
2019,05,17,13,00,999.43
2019,05,17,13,01,999.43
2019,05,17,13,02,999.39
2019,05,17,13,03,999.36
2019,05,17,13,04,999.48
2019,05,17,13,05,999.43
2019,05,17,13,06,999.39
2019,05,17,13,07,999.43
2019,05,17,13,08,999.46
2019,05,17,13,09,999.36
2019,05,17,13,10,999.36
2019,05,17,13,11,999.43
2019,05,17,13,12,999.39
2019,05,17,13,13,999.49
2019,05,17,13,14,999.46
2019,05,17,13,15,999.53
2019,05,17,13,16,999.49
2019,05,17,13,17,999.59
2019,05,17,13,18,999.59
2019,05,17,13,19,999.65
2019,05,17,13,20,999.59
2019,05,17,13,21,999.53
2019,05,17,13,22,999.53
2019,05,17,13,23,999.59
2019,05,17,13,24,999.49
2019,05,17,13,25,999.49
2019,05,17,13,26,999.46
2019,05,17,13,27,999.49
2019,05,17,13,28,999.46
2019,05,17,13,29,999.49
2019,05,17,13,30,999.43
2019,05,17,13,31,999.43
2019,05,17,13,32,999.46
2019,05,17,13,33,999.43
2019,05,17,13,34,999.46
2019,05,17,13,35,999.53
2019,05,17,13,36,999.49
2019,05,17,13,37,999.53
2019,05,17,13,38,999.46
2019,05,17,13,39,999.46
2019,05,17,13,40,999.53
2019,05,17,13,41,999.49
2019,05,17,13,42,999.43
2019,05,17,13,43,999.46
2019,05,17,13,44,999.46
2019,05,17,13,45,999.39
2019,05,17,13,46,999.53
2019,05,17,13,47,999.56
2019,05,17,13,48,999.63
2019,05,17,13,49,999.66
2019,05,17,13,50,999.56
2019,05,17,13,51,999.56
2019,05,17,13,52,999.59
2019,05,17,13,53,999.59
2019,05,17,13,54,999.53
2019,05,17,13,55,999.59
2019,05,17,13,56,999.63
2019,05,17,13,57,999.59
2019,05,17,13,58,999.66
2019,05,17,13,59,999.63
2019,05,17,14,00,999.63
2019,05,17,14,01,999.66
2019,05,17,14,02,999.66
2019,05,17,14,03,999.70
2019,05,17,14,04,999.59
2019,05,17,14,05,999.59
2019,05,17,14,06,999.63
2019,05,17,14,07,999.63
2019,05,17,14,08,999.63
2019,05,17,14,09,999.66
2019,05,17,14,10,999.59
2019,05,17,14,11,999.66
2019,05,17,14,12,999.70
2019,05,17,14,13,999.66
2019,05,17,14,14,999.73
2019,05,17,14,15,999.76
2019,05,17,14,16,999.70
2019,05,17,14,17,999.80
2019,05,17,14,18,999.73
2019,05,17,14,19,999.80
2019,05,17,14,20,999.80
2019,05,17,14,21,999.76
2019,05,17,14,22,999.80
2019,05,17,14,23,999.83
2019,05,17,14,24,999.76
2019,05,17,14,25,999.87
2019,05,17,14,26,999.80
2019,05,17,14,27,999.87
2019,05,17,14,28,999.87
2019,05,17,14,29,999.80
2019,05,17,14,30,999.97
2019,05,17,14,31,1000.00
2019,05,17,14,32,999.93
2019,05,17,14,33,999.83
2019,05,17,14,34,999.93
2019,05,17,14,35,999.87
2019,05,17,14,36,999.83
2019,05,17,14,37,999.93
2019,05,17,14,38,999.83
2019,05,17,14,39,999.90
2019,05,17,14,40,999.87
2019,05,17,14,41,999.93
2019,05,17,14,42,999.87
2019,05,17,14,43,999.87
2019,05,17,14,44,999.83
2019,05,17,14,45,999.87
2019,05,17,14,46,999.83
2019,05,17,14,47,999.87
2019,05,17,14,48,999.93
2019,05,17,14,49,999.83
2019,05,17,14,50,999.83
2019,05,17,14,51,999.87
2019,05,17,14,52,999.93
2019,05,17,14,53,999.90
2019,05,17,14,54,999.93
2019,05,17,14,55,999.90
2019,05,17,14,56,999.90
2019,05,17,14,57,999.93
2019,05,17,14,58,999.97
2019,05,17,14,59,999.90
2019,05,17,15,00,999.93
2019,05,17,15,01,999.93
2019,05,17,15,02,999.93
2019,05,17,15,03,999.93
2019,05,17,15,04,1000.03
2019,05,17,15,05,1000.00
2019,05,17,15,06,1000.03
2019,05,17,15,07,1000.00
2019,05,17,15,08,1000.00
2019,05,17,15,09,1000.00
2019,05,17,15,10,1000.03
2019,05,17,15,11,1000.03
2019,05,17,15,12,1000.00
2019,05,17,15,13,999.93
2019,05,17,15,14,999.97
2019,05,17,15,15,1000.00
2019,05,17,15,16,1000.00
2019,05,17,15,17,999.97
2019,05,17,15,18,1000.03
2019,05,17,15,19,999.93
2019,05,17,15,20,1000.00
2019,05,17,15,21,1000.00
2019,05,17,15,22,999.97
2019,05,17,15,23,1000.07
2019,05,17,15,24,1000.03
2019,05,17,15,25,1000.07
2019,05,17,15,26,1000.14
2019,05,17,15,27,1000.17
2019,05,17,15,28,1000.17
2019,05,17,15,29,1000.27
2019,05,17,15,30,1000.24
2019,05,17,15,31,1000.17
2019,05,17,15,32,1000.14
2019,05,17,15,33,1000.14
2019,05,17,15,34,1000.07
2019,05,17,15,35,1000.07
2019,05,17,15,36,1000.10
2019,05,17,15,37,1000.10
2019,05,17,15,38,1000.10
2019,05,17,15,39,1000.14
2019,05,17,15,40,1000.17
2019,05,17,15,41,1000.17
2019,05,17,15,42,1000.24
2019,05,17,15,43,1000.31
2019,05,17,15,44,1000.24
2019,05,17,15,45,1000.31
2019,05,17,15,46,1000.14
2019,05,17,15,47,1000.14
2019,05,17,15,48,1000.17
2019,05,17,15,49,1000.17
2019,05,17,15,50,1000.17
2019,05,17,15,51,1000.20
2019,05,17,15,52,1000.17
2019,05,17,15,53,1000.20
2019,05,17,15,54,1000.24
2019,05,17,15,55,1000.24
2019,05,17,15,56,1000.20
2019,05,17,15,57,1000.24
2019,05,17,15,58,1000.24
2019,05,17,15,59,1000.24
2019,05,17,16,00,1000.27
2019,05,17,16,01,1000.34
2019,05,17,16,02,1000.27
2019,05,17,16,03,1000.31
2019,05,17,16,04,1000.34
2019,05,17,16,05,1000.37
2019,05,17,16,06,1000.34
2019,05,17,16,07,1000.34
2019,05,17,16,08,1000.34
2019,05,17,16,09,1000.41
2019,05,17,16,10,1000.41
2019,05,17,16,11,1000.41
2019,05,17,16,12,1000.41
2019,05,17,16,13,1000.37
2019,05,17,16,14,1000.41
2019,05,17,16,15,1000.31
2019,05,17,16,16,1000.31
2019,05,17,16,17,1000.37
2019,05,17,16,18,1000.37
2019,05,17,16,19,1000.37
2019,05,17,16,20,1000.34
2019,05,17,16,21,1000.34
2019,05,17,16,22,1000.41
2019,05,17,16,23,1000.41
2019,05,17,16,24,1000.48
2019,05,17,16,25,1000.51
2019,05,17,16,26,1000.44
2019,05,17,16,27,1000.44
2019,05,17,16,28,1000.48
2019,05,17,16,29,1000.54
2019,05,17,16,30,1000.51
2019,05,17,16,31,1000.51
2019,05,17,16,32,1000.58